Time,TemperatureF,DewpointF,PressureIn,WindDirection,WindDirectionDegrees,WindSpeedMPH,WindSpeedGustMPH,Humidity,HourlyPrecipIn,Conditions,Clouds,dailyrainin,SoftwareType,DateUTC
2013-02-19 00:03:00,50.4,33.0,30.04,North,0,0.0,0.0,51,0.00,,,0.00,WUHU216HW,2013-02-19 06:03:00,
2013-02-19 00:08:00,50.0,33.1,30.04,North,0,0.0,0.0,52,0.00,,,0.00,WUHU216HW,2013-02-19 06:08:00,
2013-02-19 00:13:00,49.7,32.8,30.04,North,0,0.0,0.0,52,0.00,,,0.00,WUHU216HW,2013-02-19 06:13:00,
2013-02-19 00:18:00,49.3,32.9,30.04,North,0,0.0,0.0,53,0.00,,,0.00,WUHU216HW,2013-02-19 06:18:00,
2013-02-19 00:23:00,49.3,32.9,30.04,North,0,0.0,0.0,53,0.00,,,0.00,WUHU216HW,2013-02-19 06:23:00,
2013-02-19 00:28:00,49.3,33.3,30.05,North,0,0.0,0.0,54,0.00,,,0.00,WUHU216HW,2013-02-19 06:28:00,
2013-02-19 00:33:00,49.0,32.5,30.05,North,0,0.0,0.0,53,0.00,,,0.00,WUHU216HW,2013-02-19 06:33:00,
2013-02-19 00:38:00,48.8,32.9,30.05,North,0,0.0,0.0,54,0.00,,,0.00,WUHU216HW,2013-02-19 06:38:00,
2013-02-19 00:43:00,48.6,32.7,30.05,North,0,0.0,0.0,54,0.00,,,0.00,WUHU216HW,2013-02-19 06:43:00,
2013-02-19 00:48:00,48.6,32.7,30.06,North,0,0.0,0.0,54,0.00,,,0.00,WUHU216HW,2013-02-19 06:48:00,
2013-02-19 00:53:00,48.4,33.0,30.06,North,0,0.0,0.0,55,0.00,,,0.00,WUHU216HW,2013-02-19 06:53:00,
2013-02-19 00:58:00,48.2,32.8,30.06,North,0,0.0,0.0,55,0.00,,,0.00,WUHU216HW,2013-02-19 06:58:00,
2013-02-19 01:03:00,47.9,32.9,30.06,North,0,0.0,0.0,56,0.00,,,0.00,WUHU216HW,2013-02-19 07:03:00,
2013-02-19 01:08:00,47.7,32.7,30.06,North,0,0.0,0.0,56,0.00,,,0.00,WUHU216HW,2013-02-19 07:08:00,
2013-02-19 01:13:00,47.5,32.6,30.07,North,0,0.0,0.0,56,0.00,,,0.00,WUHU216HW,2013-02-19 07:13:00,
2013-02-19 01:18:00,47.0,32.5,30.07,North,0,0.0,0.0,57,0.00,,,0.00,WUHU216HW,2013-02-19 07:18:00,
2013-02-19 01:23:00,46.6,32.1,30.07,North,0,0.0,0.0,57,0.00,,,0.00,WUHU216HW,2013-02-19 07:23:00,
2013-02-19 01:28:00,46.3,31.8,30.07,North,0,0.0,0.0,57,0.00,,,0.00,WUHU216HW,2013-02-19 07:28:00,
2013-02-19 01:33:00,46.1,32.0,30.07,North,0,0.0,0.0,58,0.00,,,0.00,WUHU216HW,2013-02-19 07:33:00,
2013-02-19 01:38:00,45.7,32.2,30.08,North,0,0.0,0.0,59,0.00,,,0.00,WUHU216HW,2013-02-19 07:38:00,
2013-02-19 01:43:00,45.5,32.0,30.08,North,0,0.0,0.0,59,0.00,,,0.00,WUHU216HW,2013-02-19 07:43:00,
2013-02-19 01:48:00,45.4,31.9,30.08,North,0,0.0,0.0,59,0.00,,,0.00,WUHU216HW,2013-02-19 07:48:00,
2013-02-19 01:53:00,45.0,31.6,30.08,North,0,0.0,0.0,59,0.00,,,0.00,WUHU216HW,2013-02-19 07:53:00,
2013-02-19 01:58:00,44.8,31.4,30.08,North,0,0.0,0.0,59,0.00,,,0.00,WUHU216HW,2013-02-19 07:58:00,
2013-02-19 02:03:00,44.6,31.7,30.08,North,0,0.0,0.0,60,0.00,,,0.00,WUHU216HW,2013-02-19 08:03:00,
2013-02-19 02:08:00,44.3,31.7,30.08,North,0,0.0,0.0,61,0.00,,,0.00,WUHU216HW,2013-02-19 08:08:00,
2013-02-19 02:13:00,44.1,31.5,30.08,North,0,0.0,0.0,61,0.00,,,0.00,WUHU216HW,2013-02-19 08:13:00,
2013-02-19 02:18:00,43.9,31.3,30.08,North,0,0.0,0.0,61,0.00,,,0.00,WUHU216HW,2013-02-19 08:18:00,
2013-02-19 02:23:00,43.9,31.3,30.08,North,0,0.0,0.0,61,0.00,,,0.00,WUHU216HW,2013-02-19 08:23:00,
2013-02-19 02:28:00,43.7,31.1,30.08,North,0,0.0,0.0,61,0.00,,,0.00,WUHU216HW,2013-02-19 08:28:00,
2013-02-19 02:33:00,43.6,31.4,30.08,North,0,0.0,0.0,62,0.00,,,0.00,WUHU216HW,2013-02-19 08:33:00,
2013-02-19 02:38:00,43.6,31.8,30.08,North,0,0.0,0.0,63,0.00,,,0.00,WUHU216HW,2013-02-19 08:38:00,
2013-02-19 02:43:00,43.0,31.2,30.08,North,0,0.0,0.0,63,0.00,,,0.00,WUHU216HW,2013-02-19 08:43:00,
2013-02-19 02:48:00,42.7,31.3,30.08,North,0,0.0,0.0,64,0.00,,,0.00,WUHU216HW,2013-02-19 08:48:00,
2013-02-19 02:53:00,42.5,31.2,30.08,North,0,0.0,0.0,64,0.00,,,0.00,WUHU216HW,2013-02-19 08:53:00,
2013-02-19 02:58:00,42.3,31.0,30.08,North,0,0.0,0.0,64,0.00,,,0.00,WUHU216HW,2013-02-19 08:58:00,
2013-02-19 03:03:00,42.3,31.3,30.08,North,0,0.0,0.0,65,0.00,,,0.00,WUHU216HW,2013-02-19 09:03:00,
2013-02-19 03:08:00,42.5,31.2,30.09,North,0,0.0,0.0,64,0.00,,,0.00,WUHU216HW,2013-02-19 09:08:00,
2013-02-19 03:13:00,42.5,31.2,30.09,North,0,0.0,0.0,64,0.00,,,0.00,WUHU216HW,2013-02-19 09:13:00,
2013-02-19 03:18:00,42.7,30.9,30.09,North,0,0.0,0.0,63,0.00,,,0.00,WUHU216HW,2013-02-19 09:18:00,
2013-02-19 03:23:00,42.7,30.9,30.09,North,0,0.0,0.0,63,0.00,,,0.00,WUHU216HW,2013-02-19 09:23:00,
2013-02-19 03:28:00,42.8,31.1,30.08,North,0,0.0,0.0,63,0.00,,,0.00,WUHU216HW,2013-02-19 09:28:00,
2013-02-19 03:33:00,43.2,31.4,30.08,North,0,0.0,0.0,63,0.00,,,0.00,WUHU216HW,2013-02-19 09:33:00,
2013-02-19 03:38:00,43.6,31.8,30.08,North,0,0.0,0.0,63,0.00,,,0.00,WUHU216HW,2013-02-19 09:38:00,
2013-02-19 03:43:00,43.9,31.8,30.08,North,0,0.0,0.0,62,0.00,,,0.00,WUHU216HW,2013-02-19 09:43:00,
2013-02-19 03:48:00,44.1,32.0,30.08,North,0,0.0,0.0,62,0.00,,,0.00,WUHU216HW,2013-02-19 09:48:00,
2013-02-19 03:53:00,44.1,31.5,30.08,North,0,0.0,0.0,61,0.00,,,0.00,WUHU216HW,2013-02-19 09:53:00,
2013-02-19 03:58:00,44.3,31.7,30.08,North,0,0.0,0.0,61,0.00,,,0.00,WUHU216HW,2013-02-19 09:58:00,
2013-02-19 04:03:00,44.3,31.7,30.08,North,0,0.0,0.0,61,0.00,,,0.00,WUHU216HW,2013-02-19 10:03:00,
2013-02-19 04:08:00,44.1,31.5,30.08,North,0,0.0,0.0,61,0.00,,,0.00,WUHU216HW,2013-02-19 10:08:00,
2013-02-19 04:13:00,44.1,31.5,30.08,North,0,0.0,0.0,61,0.00,,,0.00,WUHU216HW,2013-02-19 10:13:00,
2013-02-19 04:18:00,43.9,31.3,30.09,North,0,0.0,0.0,61,0.00,,,0.00,WUHU216HW,2013-02-19 10:18:00,
2013-02-19 04:23:00,43.9,31.3,30.08,North,0,0.0,0.0,61,0.00,,,0.00,WUHU216HW,2013-02-19 10:23:00,
2013-02-19 04:28:00,43.9,31.3,30.07,North,0,0.0,0.0,61,0.00,,,0.00,WUHU216HW,2013-02-19 10:28:00,
2013-02-19 04:33:00,43.9,31.3,30.07,North,0,0.0,0.0,61,0.00,,,0.00,WUHU216HW,2013-02-19 10:33:00,
2013-02-19 04:38:00,43.9,31.3,30.07,North,0,0.0,0.0,61,0.00,,,0.00,WUHU216HW,2013-02-19 10:38:00,
2013-02-19 04:43:00,43.9,31.8,30.07,North,0,0.0,0.0,62,0.00,,,0.00,WUHU216HW,2013-02-19 10:43:00,
2013-02-19 04:48:00,43.9,31.8,30.07,North,0,0.0,0.0,62,0.00,,,0.00,WUHU216HW,2013-02-19 10:48:00,
2013-02-19 04:53:00,43.6,31.4,30.08,North,0,0.0,0.0,62,0.00,,,0.00,WUHU216HW,2013-02-19 10:53:00,
2013-02-19 04:58:00,43.6,31.4,30.09,North,0,0.0,0.0,62,0.00,,,0.00,WUHU216HW,2013-02-19 10:58:00,
2013-02-19 05:03:00,43.6,31.4,30.10,North,0,0.0,0.0,62,0.00,,,0.00,WUHU216HW,2013-02-19 11:03:00,
2013-02-19 05:08:00,43.2,31.1,30.11,North,0,0.0,0.0,62,0.00,,,0.00,WUHU216HW,2013-02-19 11:08:00,
2013-02-19 05:13:00,43.0,30.9,30.11,North,0,0.0,0.0,62,0.00,,,0.00,WUHU216HW,2013-02-19 11:13:00,
2013-02-19 05:18:00,42.8,30.7,30.11,North,0,0.0,0.0,62,0.00,,,0.00,WUHU216HW,2013-02-19 11:18:00,
2013-02-19 05:23:00,42.8,31.1,30.11,North,0,0.0,0.0,63,0.00,,,0.00,WUHU216HW,2013-02-19 11:23:00,
2013-02-19 05:28:00,42.7,30.9,30.11,North,0,0.0,0.0,63,0.00,,,0.00,WUHU216HW,2013-02-19 11:28:00,
2013-02-19 05:33:00,42.5,30.7,30.11,North,0,0.0,0.0,63,0.00,,,0.00,WUHU216HW,2013-02-19 11:33:00,
2013-02-19 05:38:00,42.3,30.6,30.11,North,0,0.0,0.0,63,0.00,,,0.00,WUHU216HW,2013-02-19 11:38:00,
2013-02-19 05:43:00,42.1,30.4,30.12,North,0,0.0,0.0,63,0.00,,,0.00,WUHU216HW,2013-02-19 11:43:00,
2013-02-19 05:48:00,41.8,30.1,30.12,North,0,0.0,0.0,63,0.00,,,0.00,WUHU216HW,2013-02-19 11:48:00,
2013-02-19 05:53:00,41.4,29.7,30.13,North,0,0.0,0.0,63,0.00,,,0.00,WUHU216HW,2013-02-19 11:53:00,
2013-02-19 05:58:00,41.0,29.4,30.13,North,0,0.0,0.0,63,0.00,,,0.00,WUHU216HW,2013-02-19 11:58:00,
2013-02-19 06:03:00,40.7,29.1,30.14,North,0,0.0,0.0,63,0.00,,,0.00,WUHU216HW,2013-02-19 12:03:00,
2013-02-19 06:08:00,40.5,28.9,30.14,North,0,0.0,0.0,63,0.00,,,0.00,WUHU216HW,2013-02-19 12:08:00,
2013-02-19 06:13:00,40.0,28.4,30.15,North,0,0.0,0.0,63,0.00,,,0.00,WUHU216HW,2013-02-19 12:13:00,
2013-02-19 06:18:00,39.8,28.2,30.15,North,0,0.0,0.0,63,0.00,,,0.00,WUHU216HW,2013-02-19 12:18:00,
2013-02-19 06:23:00,39.6,28.0,30.16,North,0,0.0,0.0,63,0.00,,,0.00,WUHU216HW,2013-02-19 12:23:00,
2013-02-19 06:28:00,39.2,27.6,30.16,North,0,0.0,0.0,63,0.00,,,0.00,WUHU216HW,2013-02-19 12:28:00,
2013-02-19 06:33:00,39.2,28.0,30.16,North,0,0.0,0.0,64,0.00,,,0.00,WUHU216HW,2013-02-19 12:33:00,
2013-02-19 06:38:00,38.9,27.6,30.16,North,0,0.0,0.0,64,0.00,,,0.00,WUHU216HW,2013-02-19 12:38:00,
2013-02-19 06:43:00,38.7,27.5,30.16,North,0,0.0,0.0,64,0.00,,,0.00,WUHU216HW,2013-02-19 12:43:00,
2013-02-19 06:48:00,38.5,27.4,30.15,North,0,0.0,0.0,64,0.00,,,0.00,WUHU216HW,2013-02-19 12:48:00,
2013-02-19 06:53:00,38.3,27.5,30.16,North,0,0.0,0.0,65,0.00,,,0.00,WUHU216HW,2013-02-19 12:53:00,
2013-02-19 06:58:00,38.3,27.5,30.16,North,0,0.0,0.0,65,0.00,,,0.00,WUHU216HW,2013-02-19 12:58:00,
2013-02-19 07:03:00,38.2,27.4,30.16,North,0,0.0,0.0,65,0.00,,,0.00,WUHU216HW,2013-02-19 13:03:00,
2013-02-19 07:08:00,38.2,27.7,30.17,North,0,0.0,0.0,66,0.00,,,0.00,WUHU216HW,2013-02-19 13:08:00,
2013-02-19 07:13:00,38.0,27.6,30.17,North,0,0.0,0.0,66,0.00,,,0.00,WUHU216HW,2013-02-19 13:13:00,
2013-02-19 07:18:00,38.5,28.1,30.18,North,0,0.0,0.0,66,0.00,,,0.00,WUHU216HW,2013-02-19 13:18:00,
2013-02-19 07:23:00,39.2,29.1,30.18,North,0,0.0,0.0,67,0.00,,,0.00,WUHU216HW,2013-02-19 13:23:00,
2013-02-19 07:28:00,40.1,30.0,30.19,North,0,0.0,0.0,67,0.00,,,0.00,WUHU216HW,2013-02-19 13:28:00,
2013-02-19 07:33:00,41.0,30.9,30.19,North,0,0.0,0.0,67,0.00,,,0.00,WUHU216HW,2013-02-19 13:33:00,
2013-02-19 07:38:00,42.1,32.0,30.19,North,0,0.0,0.0,67,0.00,,,0.00,WUHU216HW,2013-02-19 13:38:00,
2013-02-19 07:43:00,43.6,33.0,30.20,North,0,0.0,0.0,66,0.00,,,0.00,WUHU216HW,2013-02-19 13:43:00,
2013-02-19 07:48:00,45.4,33.5,30.21,North,0,0.0,0.0,63,0.00,,,0.00,WUHU216HW,2013-02-19 13:48:00,
2013-02-19 07:53:00,47.7,34.9,30.21,North,0,0.0,0.0,61,0.00,,,0.00,WUHU216HW,2013-02-19 13:53:00,
2013-02-19 07:58:00,49.1,34.6,30.22,North,0,0.0,0.0,57,0.00,,,0.00,WUHU216HW,2013-02-19 13:58:00,
2013-02-19 08:03:00,47.9,32.4,30.22,North,0,0.0,0.0,55,0.00,,,0.00,WUHU216HW,2013-02-19 14:03:00,
2013-02-19 08:08:00,46.8,31.4,30.23,North,0,0.0,0.0,55,0.00,,,0.00,WUHU216HW,2013-02-19 14:08:00,
2013-02-19 08:13:00,46.1,30.7,30.24,North,0,0.0,0.0,55,0.00,,,0.00,WUHU216HW,2013-02-19 14:13:00,
2013-02-19 08:18:00,45.7,30.9,30.25,North,0,0.0,0.0,56,0.00,,,0.00,WUHU216HW,2013-02-19 14:18:00,
2013-02-19 08:23:00,45.9,31.5,30.25,North,0,0.0,0.0,57,0.00,,,0.00,WUHU216HW,2013-02-19 14:23:00,
2013-02-19 08:28:00,48.1,32.1,30.25,North,0,0.0,0.0,54,0.00,,,0.00,WUHU216HW,2013-02-19 14:28:00,
2013-02-19 08:33:00,49.3,32.9,30.25,North,0,0.0,0.0,53,0.00,,,0.00,WUHU216HW,2013-02-19 14:33:00,
2013-02-19 08:38:00,49.9,29.8,30.26,North,0,0.0,0.0,46,0.00,,,0.00,WUHU216HW,2013-02-19 14:38:00,
2013-02-19 08:43:00,49.1,28.0,30.26,North,0,0.0,0.0,44,0.00,,,0.00,WUHU216HW,2013-02-19 14:43:00,
2013-02-19 08:48:00,48.6,28.6,30.27,North,0,0.0,0.0,46,0.00,,,0.00,WUHU216HW,2013-02-19 14:48:00,
2013-02-19 08:53:00,48.8,27.7,30.26,North,0,0.0,0.0,44,0.00,,,0.00,WUHU216HW,2013-02-19 14:53:00,
2013-02-19 08:58:00,49.1,29.2,30.26,North,0,0.0,0.0,46,0.00,,,0.00,WUHU216HW,2013-02-19 14:58:00,
2013-02-19 09:03:00,51.1,28.7,30.26,North,0,0.0,0.0,42,0.00,,,0.00,WUHU216HW,2013-02-19 15:03:00,
2013-02-19 09:08:00,52.6,31.1,30.26,North,0,0.0,0.0,44,0.00,,,0.00,WUHU216HW,2013-02-19 15:08:00,
2013-02-19 09:13:00,53.5,30.9,30.26,North,0,0.0,0.0,42,0.00,,,0.00,WUHU216HW,2013-02-19 15:13:00,
2013-02-19 09:18:00,54.5,31.2,30.26,North,0,0.0,0.0,41,0.00,,,0.00,WUHU216HW,2013-02-19 15:18:00,
2013-02-19 09:23:00,55.6,27.5,30.25,North,0,0.0,0.0,34,0.00,,,0.00,WUHU216HW,2013-02-19 15:23:00,
2013-02-19 09:28:00,55.8,29.0,30.25,North,0,0.0,0.0,36,0.00,,,0.00,WUHU216HW,2013-02-19 15:28:00,
2013-02-19 09:33:00,55.4,28.7,30.25,North,0,0.0,0.0,36,0.00,,,0.00,WUHU216HW,2013-02-19 15:33:00,
2013-02-19 09:38:00,55.8,29.0,30.25,North,0,0.0,0.0,36,0.00,,,0.00,WUHU216HW,2013-02-19 15:38:00,
2013-02-19 09:43:00,55.8,29.0,30.25,North,0,0.0,0.0,36,0.00,,,0.00,WUHU216HW,2013-02-19 15:43:00,
2013-02-19 09:48:00,55.4,29.4,30.26,North,0,0.0,0.0,37,0.00,,,0.00,WUHU216HW,2013-02-19 15:48:00,
2013-02-19 09:53:00,55.4,28.7,30.26,North,0,0.0,0.0,36,0.00,,,0.00,WUHU216HW,2013-02-19 15:53:00,
2013-02-19 09:58:00,57.1,30.9,30.26,North,0,0.0,0.0,37,0.00,,,0.00,WUHU216HW,2013-02-19 15:58:00,
2013-02-19 10:03:00,57.8,31.5,30.26,North,0,0.0,0.0,37,0.00,,,0.00,WUHU216HW,2013-02-19 16:03:00,
2013-02-19 10:08:00,58.5,31.4,30.26,North,0,0.0,0.0,36,0.00,,,0.00,WUHU216HW,2013-02-19 16:08:00,
2013-02-19 10:13:00,57.8,30.8,30.25,North,0,0.0,0.0,36,0.00,,,0.00,WUHU216HW,2013-02-19 16:13:00,
2013-02-19 10:18:00,56.9,28.6,30.25,North,0,0.0,0.0,34,0.00,,,0.00,WUHU216HW,2013-02-19 16:18:00,
2013-02-19 10:23:00,56.3,29.5,30.26,North,0,0.0,0.0,36,0.00,,,0.00,WUHU216HW,2013-02-19 16:23:00,
2013-02-19 10:28:00,57.2,30.3,30.26,North,0,0.0,0.0,36,0.00,,,0.00,WUHU216HW,2013-02-19 16:28:00,
2013-02-19 10:33:00,59.0,32.0,30.26,North,0,0.0,0.0,36,0.00,,,0.00,WUHU216HW,2013-02-19 16:33:00,
2013-02-19 10:38:00,59.9,29.9,30.26,North,0,0.0,0.0,32,0.00,,,0.00,WUHU216HW,2013-02-19 16:38:00,
2013-02-19 10:43:00,59.8,31.2,30.26,North,0,0.0,0.0,34,0.00,,,0.00,WUHU216HW,2013-02-19 16:43:00,
2013-02-19 10:48:00,58.7,30.3,30.26,North,0,0.0,0.0,34,0.00,,,0.00,WUHU216HW,2013-02-19 16:48:00,
2013-02-19 10:53:00,57.2,28.9,30.26,North,0,0.0,0.0,34,0.00,,,0.00,WUHU216HW,2013-02-19 16:53:00,
2013-02-19 10:58:00,57.2,28.9,30.26,North,0,0.0,0.0,34,0.00,,,0.00,WUHU216HW,2013-02-19 16:58:00,
2013-02-19 11:03:00,58.5,31.4,30.26,North,0,0.0,0.0,36,0.00,,,0.00,WUHU216HW,2013-02-19 17:03:00,
2013-02-19 11:08:00,59.4,30.9,30.26,North,0,0.0,0.0,34,0.00,,,0.00,WUHU216HW,2013-02-19 17:08:00,
2013-02-19 11:13:00,60.5,31.1,30.26,North,0,0.0,0.0,33,0.00,,,0.00,WUHU216HW,2013-02-19 17:13:00,
2013-02-19 11:18:00,60.7,31.1,30.26,North,0,0.0,0.0,33,0.00,,,0.00,WUHU216HW,2013-02-19 17:18:00,
2013-02-19 11:23:00,59.6,29.6,30.26,North,0,0.0,0.0,32,0.00,,,0.00,WUHU216HW,2013-02-19 17:23:00,
2013-02-19 11:28:00,58.3,29.2,30.26,North,0,0.0,0.0,33,0.00,,,0.00,WUHU216HW,2013-02-19 17:28:00,
2013-02-19 11:33:00,59.4,30.2,30.26,North,0,0.0,0.0,33,0.00,,,0.00,WUHU216HW,2013-02-19 17:33:00,
2013-02-19 11:38:00,60.3,30.9,30.26,North,0,0.0,0.0,33,0.00,,,0.00,WUHU216HW,2013-02-19 17:38:00,
2013-02-19 11:43:00,60.7,29.7,30.26,North,0,0.0,0.0,31,0.00,,,0.00,WUHU216HW,2013-02-19 17:43:00,
2013-02-19 11:48:00,60.1,29.4,30.26,North,0,0.0,0.0,31,0.00,,,0.00,WUHU216HW,2013-02-19 17:48:00,
2013-02-19 11:53:00,60.5,27.9,30.26,North,0,0.0,0.0,29,0.00,,,0.00,WUHU216HW,2013-02-19 17:53:00,
2013-02-19 11:58:00,60.3,28.7,30.26,North,0,0.0,0.0,30,0.00,,,0.00,WUHU216HW,2013-02-19 17:58:00,
2013-02-19 12:03:00,60.1,28.6,30.26,North,0,0.0,0.0,30,0.00,,,0.00,WUHU216HW,2013-02-19 18:03:00,
2013-02-19 12:08:00,61.0,30.1,30.26,North,0,0.0,0.0,31,0.00,,,0.00,WUHU216HW,2013-02-19 18:08:00,
2013-02-19 12:13:00,61.4,29.6,30.25,North,0,0.0,0.0,30,0.00,,,0.00,WUHU216HW,2013-02-19 18:13:00,
2013-02-19 12:18:00,61.7,29.0,30.25,North,0,0.0,0.0,29,0.00,,,0.00,WUHU216HW,2013-02-19 18:18:00,
2013-02-19 12:23:00,62.5,29.6,30.25,North,0,0.0,0.0,29,0.00,,,0.00,WUHU216HW,2013-02-19 18:23:00,
2013-02-19 12:28:00,62.6,30.8,30.24,North,0,0.0,0.0,30,0.00,,,0.00,WUHU216HW,2013-02-19 18:28:00,
2013-02-19 12:33:00,63.2,30.3,30.23,North,0,0.0,0.0,29,0.00,,,0.00,WUHU216HW,2013-02-19 18:33:00,
2013-02-19 12:38:00,63.0,30.2,30.23,North,0,0.0,0.0,29,0.00,,,0.00,WUHU216HW,2013-02-19 18:38:00,
2013-02-19 12:43:00,63.4,31.4,30.23,North,0,0.0,0.0,30,0.00,,,0.00,WUHU216HW,2013-02-19 18:43:00,
2013-02-19 12:48:00,63.9,30.0,30.22,North,0,0.0,0.0,28,0.00,,,0.00,WUHU216HW,2013-02-19 18:48:00,
2013-02-19 12:53:00,63.4,29.4,30.22,North,0,0.0,0.0,28,0.00,,,0.00,WUHU216HW,2013-02-19 18:53:00,
2013-02-19 12:58:00,63.7,30.8,30.22,North,0,0.0,0.0,29,0.00,,,0.00,WUHU216HW,2013-02-19 18:58:00,
2013-02-19 13:03:00,64.4,31.4,30.21,North,0,0.0,0.0,29,0.00,,,0.00,WUHU216HW,2013-02-19 19:03:00,
2013-02-19 13:08:00,64.4,30.4,30.21,North,0,0.0,0.0,28,0.00,,,0.00,WUHU216HW,2013-02-19 19:08:00,
2013-02-19 13:13:00,63.5,30.6,30.21,North,0,0.0,0.0,29,0.00,,,0.00,WUHU216HW,2013-02-19 19:13:00,
2013-02-19 13:18:00,64.3,31.2,30.21,North,0,0.0,0.0,29,0.00,,,0.00,WUHU216HW,2013-02-19 19:18:00,
2013-02-19 13:23:00,65.2,33.0,30.20,North,0,0.0,0.0,30,0.00,,,0.00,WUHU216HW,2013-02-19 19:23:00,
2013-02-19 13:28:00,65.3,33.2,30.20,North,0,0.0,0.0,30,0.00,,,0.00,WUHU216HW,2013-02-19 19:28:00,
2013-02-19 13:33:00,63.7,27.8,30.20,North,0,0.0,0.0,26,0.00,,,0.00,WUHU216HW,2013-02-19 19:33:00,
2013-02-19 13:38:00,64.1,30.1,30.20,North,0,0.0,0.0,28,0.00,,,0.00,WUHU216HW,2013-02-19 19:38:00,
2013-02-19 13:43:00,64.4,30.4,30.20,North,0,0.0,0.0,28,0.00,,,0.00,WUHU216HW,2013-02-19 19:43:00,
2013-02-19 13:48:00,65.0,30.9,30.19,North,0,0.0,0.0,28,0.00,,,0.00,WUHU216HW,2013-02-19 19:48:00,
2013-02-19 13:53:00,65.5,29.3,30.19,North,0,0.0,0.0,26,0.00,,,0.00,WUHU216HW,2013-02-19 19:53:00,
2013-02-19 13:58:00,65.3,29.3,30.19,North,0,0.0,0.0,26,0.00,,,0.00,WUHU216HW,2013-02-19 19:58:00,
2013-02-19 14:03:00,65.5,28.4,30.18,North,0,0.0,0.0,25,0.00,,,0.00,WUHU216HW,2013-02-19 20:03:00,
2013-02-19 14:08:00,65.7,29.5,30.18,North,0,0.0,0.0,26,0.00,,,0.00,WUHU216HW,2013-02-19 20:08:00,
2013-02-19 14:13:00,66.2,30.0,30.18,North,0,0.0,0.0,26,0.00,,,0.00,WUHU216HW,2013-02-19 20:13:00,
2013-02-19 14:18:00,67.3,30.9,30.18,North,0,0.0,0.0,26,0.00,,,0.00,WUHU216HW,2013-02-19 20:18:00,
2013-02-19 14:23:00,67.3,29.9,30.18,North,0,0.0,0.0,25,0.00,,,0.00,WUHU216HW,2013-02-19 20:23:00,
2013-02-19 14:28:00,67.3,29.9,30.17,North,0,0.0,0.0,25,0.00,,,0.00,WUHU216HW,2013-02-19 20:28:00,
2013-02-19 14:33:00,68.6,32.0,30.17,North,0,0.0,0.0,26,0.00,,,0.00,WUHU216HW,2013-02-19 20:33:00,
2013-02-19 14:38:00,68.9,31.3,30.17,North,0,0.0,0.0,25,0.00,,,0.00,WUHU216HW,2013-02-19 20:38:00,
2013-02-19 14:43:00,69.1,29.4,30.17,North,0,0.0,0.0,23,0.00,,,0.00,WUHU216HW,2013-02-19 20:43:00,
2013-02-19 14:48:00,69.3,31.6,30.17,North,0,0.0,0.0,25,0.00,,,0.00,WUHU216HW,2013-02-19 20:48:00,
2013-02-19 14:53:00,70.0,29.2,30.16,North,0,0.0,0.0,22,0.00,,,0.00,WUHU216HW,2013-02-19 20:53:00,
2013-02-19 14:58:00,69.8,30.1,30.16,North,0,0.0,0.0,23,0.00,,,0.00,WUHU216HW,2013-02-19 20:58:00,
2013-02-19 15:03:00,70.0,31.1,30.15,North,0,0.0,0.0,24,0.00,,,0.00,WUHU216HW,2013-02-19 21:03:00,
2013-02-19 15:08:00,68.9,30.2,30.15,North,0,0.0,0.0,24,0.00,,,0.00,WUHU216HW,2013-02-19 21:08:00,
2013-02-19 15:13:00,68.9,30.2,30.15,North,0,0.0,0.0,24,0.00,,,0.00,WUHU216HW,2013-02-19 21:13:00,
2013-02-19 15:18:00,69.5,30.7,30.15,North,0,0.0,0.0,24,0.00,,,0.00,WUHU216HW,2013-02-19 21:18:00,
2013-02-19 15:23:00,70.4,31.5,30.14,North,0,0.0,0.0,24,0.00,,,0.00,WUHU216HW,2013-02-19 21:23:00,
2013-02-19 15:28:00,69.7,28.9,30.14,North,0,0.0,0.0,22,0.00,,,0.00,WUHU216HW,2013-02-19 21:28:00,
2013-02-19 15:34:00,69.5,28.7,30.14,North,0,0.0,0.0,22,0.00,,,0.00,WUHU216HW,2013-02-19 21:34:00,
2013-02-19 15:39:00,69.5,29.7,30.14,North,0,0.0,0.0,23,0.00,,,0.00,WUHU216HW,2013-02-19 21:39:00,
2013-02-19 15:44:00,70.9,29.9,30.13,North,0,0.0,0.0,22,0.00,,,0.00,WUHU216HW,2013-02-19 21:44:00,
2013-02-19 15:49:00,70.2,30.3,30.13,North,0,0.0,0.0,23,0.00,,,0.00,WUHU216HW,2013-02-19 21:49:00,
2013-02-19 15:54:00,71.3,30.3,30.13,North,0,0.0,0.0,22,0.00,,,0.00,WUHU216HW,2013-02-19 21:54:00,
2013-02-19 15:59:00,69.1,29.4,30.13,North,0,0.0,0.0,23,0.00,,,0.00,WUHU216HW,2013-02-19 21:59:00,
2013-02-19 16:04:00,69.1,29.4,30.12,North,0,0.0,0.0,23,0.00,,,0.00,WUHU216HW,2013-02-19 22:04:00,
2013-02-19 16:09:00,71.3,30.3,30.12,North,0,0.0,0.0,22,0.00,,,0.00,WUHU216HW,2013-02-19 22:09:00,
2013-02-19 16:14:00,69.5,27.7,30.13,North,0,0.0,0.0,21,0.00,,,0.00,WUHU216HW,2013-02-19 22:14:00,
2013-02-19 16:19:00,67.9,28.4,30.12,North,0,0.0,0.0,23,0.00,,,0.00,WUHU216HW,2013-02-19 22:19:00,
2013-02-19 16:24:00,69.8,29.0,30.12,North,0,0.0,0.0,22,0.00,,,0.00,WUHU216HW,2013-02-19 22:24:00,
2013-02-19 16:29:00,68.8,28.2,30.12,North,0,0.0,0.0,22,0.00,,,0.00,WUHU216HW,2013-02-19 22:29:00,
2013-02-19 16:34:00,69.5,27.7,30.12,North,0,0.0,0.0,21,0.00,,,0.00,WUHU216HW,2013-02-19 22:34:00,
2013-02-19 16:39:00,70.2,29.4,30.11,North,0,0.0,0.0,22,0.00,,,0.00,WUHU216HW,2013-02-19 22:39:00,
2013-02-19 16:44:00,69.8,28.0,30.11,North,0,0.0,0.0,21,0.00,,,0.00,WUHU216HW,2013-02-19 22:44:00,
2013-02-19 16:49:00,68.2,26.7,30.12,North,0,0.0,0.0,21,0.00,,,0.00,WUHU216HW,2013-02-19 22:49:00,
2013-02-19 16:54:00,67.3,27.9,30.12,North,0,0.0,0.0,23,0.00,,,0.00,WUHU216HW,2013-02-19 22:54:00,
2013-02-19 16:59:00,65.5,25.4,30.11,North,0,0.0,0.0,22,0.00,,,0.00,WUHU216HW,2013-02-19 22:59:00,
2013-02-19 17:04:00,63.7,24.8,30.11,North,0,0.0,0.0,23,0.00,,,0.00,WUHU216HW,2013-02-19 23:04:00,
2013-02-19 17:09:00,64.4,26.5,30.11,North,0,0.0,0.0,24,0.00,,,0.00,WUHU216HW,2013-02-19 23:09:00,
2013-02-19 17:14:00,64.4,26.5,30.11,North,0,0.0,0.0,24,0.00,,,0.00,WUHU216HW,2013-02-19 23:14:00,
2013-02-19 17:19:00,64.3,26.3,30.11,North,0,0.0,0.0,24,0.00,,,0.00,WUHU216HW,2013-02-19 23:19:00,
2013-02-19 17:24:00,62.5,25.7,30.11,North,0,0.0,0.0,25,0.00,,,0.00,WUHU216HW,2013-02-19 23:24:00,
2013-02-19 17:29:00,62.1,25.5,30.12,North,0,0.0,0.0,25,0.00,,,0.00,WUHU216HW,2013-02-19 23:29:00,
2013-02-19 17:34:00,62.1,25.5,30.12,North,0,0.0,0.0,25,0.00,,,0.00,WUHU216HW,2013-02-19 23:34:00,
2013-02-19 17:39:00,62.1,25.5,30.12,North,0,0.0,0.0,25,0.00,,,0.00,WUHU216HW,2013-02-19 23:39:00,
2013-02-19 17:44:00,62.5,26.7,30.12,North,0,0.0,0.0,26,0.00,,,0.00,WUHU216HW,2013-02-19 23:44:00,
2013-02-19 17:49:00,61.4,24.8,30.13,North,0,0.0,0.0,25,0.00,,,0.00,WUHU216HW,2013-02-19 23:49:00,
2013-02-19 17:54:00,60.1,25.8,30.13,North,0,0.0,0.0,27,0.00,,,0.00,WUHU216HW,2013-02-19 23:54:00,
2013-02-19 17:59:00,59.2,25.9,30.13,North,0,0.0,0.0,28,0.00,,,0.00,WUHU216HW,2013-02-19 23:59:00,
2013-02-19 18:04:00,58.5,25.3,30.13,North,0,0.0,0.0,28,0.00,,,0.00,WUHU216HW,2013-02-20 00:04:00,
2013-02-19 18:09:00,57.8,25.7,30.13,North,0,0.0,0.0,29,0.00,,,0.00,WUHU216HW,2013-02-20 00:09:00,
2013-02-19 18:14:00,57.1,25.9,30.13,North,0,0.0,0.0,30,0.00,,,0.00,WUHU216HW,2013-02-20 00:14:00,
2013-02-19 18:19:00,56.5,25.5,30.13,North,0,0.0,0.0,30,0.00,,,0.00,WUHU216HW,2013-02-20 00:19:00,
2013-02-19 18:24:00,55.8,25.5,30.13,North,0,0.0,0.0,31,0.00,,,0.00,WUHU216HW,2013-02-20 00:24:00,
2013-02-19 18:29:00,55.4,25.2,30.13,North,0,0.0,0.0,31,0.00,,,0.00,WUHU216HW,2013-02-20 00:29:00,
2013-02-19 18:34:00,54.9,25.5,30.13,North,0,0.0,0.0,32,0.00,,,0.00,WUHU216HW,2013-02-20 00:34:00,
2013-02-19 18:39:00,54.5,25.1,30.13,North,0,0.0,0.0,32,0.00,,,0.00,WUHU216HW,2013-02-20 00:39:00,
2013-02-19 18:44:00,54.2,25.6,30.13,North,0,0.0,0.0,33,0.00,,,0.00,WUHU216HW,2013-02-20 00:44:00,
2013-02-19 18:49:00,54.0,25.4,30.13,North,0,0.0,0.0,33,0.00,,,0.00,WUHU216HW,2013-02-20 00:49:00,
2013-02-19 18:54:00,53.6,25.7,30.13,North,0,0.0,0.0,34,0.00,,,0.00,WUHU216HW,2013-02-20 00:54:00,
2013-02-19 18:59:00,53.5,25.7,30.13,North,0,0.0,0.0,34,0.00,,,0.00,WUHU216HW,2013-02-20 00:59:00,
2013-02-19 19:04:00,53.3,25.5,30.13,North,0,0.0,0.0,34,0.00,,,0.00,WUHU216HW,2013-02-20 01:04:00,
2013-02-19 19:09:00,52.9,26.5,30.13,North,0,0.0,0.0,36,0.00,,,0.00,WUHU216HW,2013-02-20 01:09:00,
2013-02-19 19:14:00,52.7,26.4,30.13,North,0,0.0,0.0,36,0.00,,,0.00,WUHU216HW,2013-02-20 01:14:00,
2013-02-19 19:19:00,52.6,26.2,30.13,North,0,0.0,0.0,36,0.00,,,0.00,WUHU216HW,2013-02-20 01:19:00,
2013-02-19 19:24:00,52.6,26.8,30.13,North,0,0.0,0.0,37,0.00,,,0.00,WUHU216HW,2013-02-20 01:24:00,
2013-02-19 19:30:00,52.6,26.8,30.13,North,0,0.0,0.0,37,0.00,,,0.00,WUHU216HW,2013-02-20 01:30:00,
2013-02-19 19:35:00,52.6,26.8,30.13,North,0,0.0,0.0,37,0.00,,,0.00,WUHU216HW,2013-02-20 01:35:00,
2013-02-19 19:40:00,52.4,26.7,30.13,North,0,0.0,0.0,37,0.00,,,0.00,WUHU216HW,2013-02-20 01:40:00,
2013-02-19 19:45:00,52.4,27.4,30.13,North,0,0.0,0.0,38,0.00,,,0.00,WUHU216HW,2013-02-20 01:45:00,
2013-02-19 19:50:00,52.6,27.5,30.13,North,0,0.0,0.0,38,0.00,,,0.00,WUHU216HW,2013-02-20 01:50:00,
2013-02-19 19:55:00,52.9,27.9,30.13,North,0,0.0,0.0,38,0.00,,,0.00,WUHU216HW,2013-02-20 01:55:00,
2013-02-19 19:59:00,52.9,27.9,30.13,North,0,0.0,0.0,38,0.00,,,0.00,WUHU216HW,2013-02-20 01:59:00,
2013-02-19 20:05:00,52.9,27.9,30.13,North,0,0.0,0.0,38,0.00,,,0.00,WUHU216HW,2013-02-20 02:05:00,
2013-02-19 20:10:00,52.9,27.9,30.13,North,0,0.0,0.0,38,0.00,,,0.00,WUHU216HW,2013-02-20 02:10:00,
2013-02-19 20:15:00,52.9,27.9,30.13,North,0,0.0,0.0,38,0.00,,,0.00,WUHU216HW,2013-02-20 02:15:00,
2013-02-19 20:19:00,52.9,27.2,30.13,North,0,0.0,0.0,37,0.00,,,0.00,WUHU216HW,2013-02-20 02:19:00,
2013-02-19 20:25:00,54.4,35.6,30.13,North,0,0.0,0.0,49,0.00,,,0.00,WUHU216HW,2013-02-20 02:25:00,
2013-02-19 20:30:00,59.6,41.5,30.12,North,0,0.0,0.0,51,0.00,,,0.00,WUHU216HW,2013-02-20 02:30:00,
2013-02-19 20:35:00,64.3,44.0,30.12,North,0,0.0,0.0,48,0.00,,,0.00,WUHU216HW,2013-02-20 02:35:00,
2013-02-19 20:40:00,65.2,34.5,30.12,North,0,0.0,0.0,32,0.00,,,0.00,WUHU216HW,2013-02-20 02:40:00,
2013-02-19 20:45:00,59.8,29.0,30.12,North,0,0.0,0.0,31,0.00,,,0.00,WUHU216HW,2013-02-20 02:45:00,
2013-02-19 20:50:00,56.7,27.7,30.12,North,0,0.0,0.0,33,0.00,,,0.00,WUHU216HW,2013-02-20 02:50:00,
2013-02-19 20:55:00,54.9,26.8,30.13,North,0,0.0,0.0,34,0.00,,,0.00,WUHU216HW,2013-02-20 02:55:00,
2013-02-19 21:00:00,54.0,27.5,30.13,North,0,0.0,0.0,36,0.00,,,0.00,WUHU216HW,2013-02-20 03:00:00,
2013-02-19 21:05:00,53.6,27.2,30.13,North,0,0.0,0.0,36,0.00,,,0.00,WUHU216HW,2013-02-20 03:05:00,
2013-02-19 21:10:00,53.5,27.6,30.13,North,0,0.0,0.0,37,0.00,,,0.00,WUHU216HW,2013-02-20 03:10:00,
2013-02-19 21:15:00,53.3,27.6,30.13,North,0,0.0,0.0,37,0.00,,,0.00,WUHU216HW,2013-02-20 03:15:00,
2013-02-19 21:20:00,53.3,27.6,30.13,North,0,0.0,0.0,37,0.00,,,0.00,WUHU216HW,2013-02-20 03:20:00,
2013-02-19 21:25:00,53.1,28.0,30.12,North,0,0.0,0.0,38,0.00,,,0.00,WUHU216HW,2013-02-20 03:25:00,
2013-02-19 21:30:00,52.9,27.2,30.13,North,0,0.0,0.0,37,0.00,,,0.00,WUHU216HW,2013-02-20 03:30:00,
2013-02-19 21:35:00,52.9,27.2,30.14,North,0,0.0,0.0,37,0.00,,,0.00,WUHU216HW,2013-02-20 03:35:00,
2013-02-19 21:40:00,52.9,27.2,30.14,North,0,0.0,0.0,37,0.00,,,0.00,WUHU216HW,2013-02-20 03:40:00,
2013-02-19 21:45:00,52.9,27.9,30.15,North,0,0.0,0.0,38,0.00,,,0.00,WUHU216HW,2013-02-20 03:45:00,
2013-02-19 21:50:00,52.6,28.3,30.15,North,0,0.0,0.0,39,0.00,,,0.00,WUHU216HW,2013-02-20 03:50:00,
2013-02-19 21:55:00,52.6,28.3,30.15,North,0,0.0,0.0,39,0.00,,,0.00,WUHU216HW,2013-02-20 03:55:00,
2013-02-19 22:00:00,52.6,27.5,30.15,North,0,0.0,0.0,38,0.00,,,0.00,WUHU216HW,2013-02-20 04:00:00,
2013-02-19 22:05:00,52.6,28.3,30.14,North,0,0.0,0.0,39,0.00,,,0.00,WUHU216HW,2013-02-20 04:05:00,
2013-02-19 22:10:00,52.2,27.9,30.15,North,0,0.0,0.0,39,0.00,,,0.00,WUHU216HW,2013-02-20 04:10:00,
2013-02-19 22:15:00,52.2,27.9,30.14,North,0,0.0,0.0,39,0.00,,,0.00,WUHU216HW,2013-02-20 04:15:00,
2013-02-19 22:20:00,52.4,28.1,30.14,North,0,0.0,0.0,39,0.00,,,0.00,WUHU216HW,2013-02-20 04:20:00,
2013-02-19 22:25:00,52.2,27.9,30.15,North,0,0.0,0.0,39,0.00,,,0.00,WUHU216HW,2013-02-20 04:25:00,
2013-02-19 22:30:00,52.2,27.9,30.14,North,0,0.0,0.0,39,0.00,,,0.00,WUHU216HW,2013-02-20 04:30:00,
2013-02-19 22:35:00,52.2,27.9,30.13,North,0,0.0,0.0,39,0.00,,,0.00,WUHU216HW,2013-02-20 04:35:00,
2013-02-19 22:40:00,52.2,27.9,30.13,North,0,0.0,0.0,39,0.00,,,0.00,WUHU216HW,2013-02-20 04:40:00,
2013-02-19 22:45:00,52.2,27.9,30.12,North,0,0.0,0.0,39,0.00,,,0.00,WUHU216HW,2013-02-20 04:45:00,
2013-02-19 22:50:00,52.2,29.2,30.12,North,0,0.0,0.0,41,0.00,,,0.00,WUHU216HW,2013-02-20 04:50:00,
2013-02-19 22:55:00,51.5,30.7,30.12,North,0,0.0,0.0,45,0.00,,,0.00,WUHU216HW,2013-02-20 04:55:00,
2013-02-19 23:00:00,50.8,30.1,30.11,North,0,0.0,0.0,45,0.00,,,0.00,WUHU216HW,2013-02-20 05:00:00,
2013-02-19 23:05:00,50.4,32.0,30.11,North,0,0.0,0.0,49,0.00,,,0.00,WUHU216HW,2013-02-20 05:05:00,
2013-02-19 23:10:00,50.0,31.7,30.11,North,0,0.0,0.0,49,0.00,,,0.00,WUHU216HW,2013-02-20 05:10:00,
2013-02-19 23:15:00,50.0,30.5,30.11,North,0,0.0,0.0,47,0.00,,,0.00,WUHU216HW,2013-02-20 05:15:00,
2013-02-19 23:21:00,50.0,32.2,30.12,North,0,0.0,0.0,50,0.00,,,0.00,WUHU216HW,2013-02-20 05:21:00,
2013-02-19 23:25:00,50.0,32.7,30.12,North,0,0.0,0.0,51,0.00,,,0.00,WUHU216HW,2013-02-20 05:25:00,
2013-02-19 23:30:00,49.9,32.9,30.12,North,0,0.0,0.0,52,0.00,,,0.00,WUHU216HW,2013-02-20 05:30:00,
2013-02-19 23:36:00,49.7,32.8,30.12,North,0,0.0,0.0,52,0.00,,,0.00,WUHU216HW,2013-02-20 05:36:00,
2013-02-19 23:41:00,49.9,32.9,30.12,North,0,0.0,0.0,52,0.00,,,0.00,WUHU216HW,2013-02-20 05:41:00,
2013-02-19 23:46:00,50.0,32.2,30.11,North,0,0.0,0.0,50,0.00,,,0.00,WUHU216HW,2013-02-20 05:46:00,
2013-02-19 23:51:00,50.0,32.7,30.11,North,0,0.0,0.0,51,0.00,,,0.00,WUHU216HW,2013-02-20 05:51:00,
2013-02-19 23:56:00,50.0,32.2,30.11,North,0,0.0,0.0,50,0.00,,,0.00,WUHU216HW,2013-02-20 05:56:00,